Location: CARMA
(37.2805°N, 118.1419°W)
Time: 03:35:45
(UTC-07:00)

Daily predictions for brighter satellites

Satellite Brightness Start Highest point End
(mag) Time Altitude Azimuth Time Altitude Azimuth Time Altitude Azimuth
Sich 1 4.0 00:07:15 45° N 00:07:15 45° N 00:10:18 10° N
CZ-4C R/B 2.8 00:08:02 44° ENE 00:08:02 44° ENE 00:12:18 10° NE
Cosmos 1891 Rocket 4.2 00:03:42 10° N 00:09:48 89° W 00:10:01 84° S
Cosmos 1707 Rocket 4.5 00:10:29 10° NNW 00:13:50 47° NW 00:13:50 47° NW
Cosmos 1464 Rocket 4.4 00:23:16 10° NNW 00:29:10 50° W 00:29:33 49° WSW
Cosmos 2346 Rocket 4.5 00:32:58 67° E 00:32:58 67° E 00:38:58 10° NNE
Cosmos 1844 Rocket 2.7 00:39:30 72° NE 00:39:30 72° NE 00:44:30 10° NNE
Cosmos 1634 Rocket 4.3 00:34:26 10° N 00:40:29 54° E 00:40:47 54° E
CZ-2C R/B 3.8 00:50:10 50° W 00:50:10 50° W 00:55:24 10° NNW
In-Cosmos 22 Rocket 4.2 00:50:35 74° N 00:50:35 74° N 00:55:38 10° N
Lacrosse 5 4.3 00:47:30 10° W 00:47:59 12° W 00:47:59 12° W
Tsikada Rocket 4.4 00:53:01 52° W 00:53:36 53° W 00:59:49 10° N
CZ-2C R/B 4.2 01:14:01 10° NNW 01:18:13 24° WNW 01:18:52 24° WNW
H-2A R/B 3.7 01:17:08 10° NNE 01:20:19 40° NE 01:20:19 40° NE
Cosmos 2278 Rocket 2.2 01:27:04 78° NE 01:27:04 78° NE 01:32:24 10° NNE
Cosmos 1844 4.3 01:31:39 45° WNW 01:31:58 45° WNW 01:37:21 10° N
Nadezhda 4 Rocket 4.4 01:35:13 49° ESE 01:35:57 51° E 01:42:03 10° NNE
Okean 1-7 4.0 01:31:54 10° N 01:35:02 45° NNE 01:35:02 45° NNE
CZ-4B R/B 4.0 01:39:08 19° NNW 01:39:08 19° NNW 01:40:18 10° NNW
Cosmos 1833 Rocket 4.4 01:32:38 10° N 01:37:24 27° ENE 01:40:32 17° ESE
Cosmos 1461 4.4 01:39:59 33° NNE 01:39:59 33° NNE 01:42:16 10° NNE
Cosmos 923 Rocket 4.1 01:38:31 10° NNW 01:43:14 73° N 01:43:14 73° N
COSMOS 2406 4.2 01:39:09 10° NW 01:43:06 33° WNW 01:43:06 33° WNW
Cosmos 2297 4.1 01:46:52 52° ESE 01:46:52 52° ESE 01:52:16 10° NNE
Cosmos 2279 Rocket 3.9 01:46:58 10° NNW 01:53:11 67° W 01:53:28 66° WSW
Cosmos 1825 3.7 01:56:02 35° N 01:56:02 35° N 01:58:21 10° N
Cosmos 1733 Rocket 4.1 01:56:07 39° ENE 01:56:07 39° ENE 01:59:37 10° NNE
Meteor 1-10 Rocket 4.2 01:49:50 10° N 01:55:38 83° E 01:56:01 78° SE
CZ-4C R/B 4.0 01:53:11 17° WNW 01:55:40 23° NW 02:00:18 10° N
Cosmos 192 4.4 01:55:54 10° NNW 02:00:31 73° NNE 02:00:31 73° NNE
PSLV R/B 4.1 01:56:31 10° N 02:00:08 59° N 02:00:08 59° N
Cosmos 2082 Rocket 3.0 01:57:13 10° N 02:02:38 46° ENE 02:04:46 32° ESE
Cosmos 1782 4.1 02:02:48 10° NNW 02:05:21 36° NNW 02:05:21 36° NNW
Cosmos 1408 4.4 02:08:32 29° NNW 02:08:32 29° NNW 02:10:29 10° N
ADEOS Rocket 4.3 02:02:18 10° NNE 02:09:15 38° E 02:12:01 28° SE
Cosmos 44 3.5 02:10:25 61° ENE 02:10:25 61° ENE 02:14:17 10° NNE
Cosmos 2112 Rocket 3.9 02:08:38 10° NNW 02:13:43 75° WNW 02:13:43 75° WNW
ATLAS 3B R/B 3.0 02:15:40 51° SSE 02:17:24 64° ESE 02:24:34 10° NE
Cosmos 44 Rocket 3.3 02:19:53 71° NW 02:19:53 71° NW 02:24:30 10° NNE
PSLV R/B 4.3 02:21:52 62° NNE 02:21:52 62° NNE 02:25:30 10° N
Meteor 2-6 Rocket 4.2 02:17:54 10° NNW 02:23:23 61° W 02:23:31 61° WSW
Helios 1A Rocket 3.4 02:20:19 10° N 02:23:43 58° N 02:23:43 58° N
Meteor 1-27 Rocket 3.7 02:18:38 10° N 02:24:36 87° E 02:25:43 61° SSE
AQUA 4.4 02:21:25 10° NNE 02:26:00 46° E 02:26:22 45° ESE
Cosmos 1680 Rocket 4.0 02:21:37 10° NNW 02:26:01 46° W 02:26:01 46° W
Cosmos 1674 Rocket 3.9 02:23:24 10° N 02:27:47 58° E 02:27:55 58° E
Cosmos 1937 Rocket 3.3 02:30:03 75° SSE 02:30:25 80° ESE 02:35:35 10° NNE
Cosmos 1908 Rocket 4.1 02:35:31 49° ESE 02:35:48 50° E 02:40:06 10° NNE
Timation 2 Rocket 4.5 02:30:04 10° NNW 02:36:01 55° ENE 02:41:04 16° SE
Meteor 2-20 Rocket 4.4 02:35:56 54° S 02:37:29 83° E 02:43:40 10° N
Resurs 1-4 Rocket 3.2 02:34:30 10° NNE 02:39:23 36° E 02:41:09 28° SE
COBE Rocket 4.4 02:35:23 10° NNE 02:40:05 51° E 02:41:00 44° SE
Geosat 4.2 02:36:38 10° NNE 02:41:36 58° ESE 02:42:20 52° SSE
Cosmos 1898 Rocket 3.7 02:43:27 51° W 02:44:00 53° WNW 02:49:09 10° N
Cosmos 990 Rocket 3.8 02:45:28 69° SSW 02:46:07 86° WNW 02:51:19 10° NNE
SeaSat 1 2.3 02:45:36 63° SSE 02:46:24 83° WSW 02:51:22 10° NNW
Cosmos 1092 Rocket 4.1 02:46:12 49° SW 02:47:36 60° W 02:53:48 10° N
Cosmos 1378 Rocket 4.1 02:45:10 10° N 02:49:24 53° E 02:50:20 44° SE
IRS-1C 4.1 02:48:25 10° NNE 02:53:46 79° ESE 02:55:08 51° S
Cosmos 1340 3.6 02:50:10 10° NNW 02:52:51 40° NW 02:52:51 40° NW
CZ-2D R/B 2.7 02:49:57 10° NNE 02:55:11 50° E 02:57:14 33° SSE
SL-08 R/B 3.2 02:57:17 60° S 02:58:10 80° WSW 03:03:00 10° NNW
Cosmos 1782 Rocket 4.2 02:57:32 41° SE 02:58:36 52° E 03:02:57 10° NNE
ARIANE 5 R/B 3.1 02:54:40 10° NNE 02:59:30 48° E 03:01:18 33° SSE
Cosmos 2026 Rocket 3.8 02:58:14 46° SSW 03:00:09 81° W 03:06:14 10° N
Spot 4 Rocket 4.3 02:57:01 10° NNE 03:02:09 63° ESE 03:03:52 40° SSE
CBERS-1 4.2 03:01:53 10° N 03:06:56 59° WNW 03:08:06 47° WSW
USA 238 DEB 3.7 03:06:09 39° SW 03:08:59 82° WNW 03:16:02 10° NNE
USA 238 3.7 03:06:15 39° SW 03:09:06 82° WNW 03:16:08 10° NNE
IRS-1D 3.6 03:04:41 10° NNE 03:09:47 69° ESE 03:11:33 40° S
Cosmos 2278 Rocket 4.4 03:08:54 11° W 03:11:31 14° NW 03:14:24 10° NNW
COSMOS 2487 4.0 03:09:11 10° NNW 03:11:07 26° NW 03:11:07 26° NW
Cosmos 1437 3.4 03:14:57 10° N 03:18:07 50° E 03:18:38 44° ESE
Cosmos 1943 Rocket 3.9 03:14:38 13° SSE 03:18:25 26° ESE 03:22:58 10° NE
GP-B 3.7 03:14:53 10° NNW 03:19:01 39° W 03:19:22 38° W
NPP 4.3 03:15:42 10° N 03:20:43 41° WNW 03:22:20 33° WSW
Cosmos 2369 Rocket 2.7 03:18:13 28° SSE 03:20:55 52° ESE 03:26:22 10° NNE
Cosmos 1833 Rocket 3.1 03:16:11 10° NW 03:21:24 39° WSW 03:22:10 37° SW
UNK 3.7 03:21:08 35° S 03:23:06 86° WSW 03:27:48 10° NNW
Cosmos 1812 2.7 03:23:38 10° N 03:27:30 83° E 03:28:43 43° SSE
Cosmos 1655 Rocket 4.1 03:25:44 34° SSW 03:28:29 62° W 03:34:41 10° N
Cosmos 1975 Rocket 2.9 03:26:34 10° N 03:30:55 88° ENE 03:32:56 31° S
COSMOS 2455 4.0 03:27:30 17° SSE 03:31:23 36° ESE 03:36:49 10° NE
Cosmos 372 Rocket 4.3 03:29:52 28° S 03:32:34 62° ESE 03:37:41 10° NNE
ADEOS II 4.4 03:31:09 10° NE 03:34:47 19° E 03:38:23 10° SE
CBERS 1 LM4 rocket 4.4 03:30:07 10° N 03:35:01 65° WNW 03:36:56 36° SW
SL-16 R/B 2.5 03:31:45 23° S 03:35:43 66° WSW 03:41:57 10° NNW
CZ-3B DEB 4.0 03:23:50 10° NW 03:37:10 83° SW 03:47:40 10° SE
USA 267 3.2 03:39:44 10° NE 03:46:18 85° SE 03:50:31 24° SW
Cosmos 2082 Rocket 3.4 03:42:09 10° NW 03:46:19 22° W 03:46:33 22° WSW
Meteor 1-25 Rocket 4.3 03:43:47 29° SSW 03:46:37 62° W 03:52:12 10° N
Cosmos 468 4.5 03:41:38 10° NNW 03:46:59 87° WSW 03:52:16 10° SSE
ASTRO E2 3.8 03:46:57 26° S 03:47:08 26° SSE 03:50:31 10° ESE
Cosmos 158 Rocket 4.3 03:42:58 10° NNW 03:48:02 63° ENE 03:52:56 10° SSE
NOSS 3-2 (C) 3.5 03:45:13 25° SSW 03:48:48 73° ESE 03:55:16 10° NE
NOSS 3-2 (A) 3.4 03:46:06 27° SW 03:49:32 85° WNW 03:56:03 10° NNE
ADEOS Rocket 4.1 03:47:40 10° N 03:54:37 40° WNW 03:58:58 20° WSW
MOZ.5/SAFIR/RUBIN 5/SL-8 3.7 03:56:03 10° S 04:00:45 82° WSW 04:05:30 10° NNW
Cosmos 2266 Rocket 4.0 03:58:29 17° SSW 04:03:31 75° W 04:09:57 10° N
GENESIS II 4.2 04:01:50 27° SSW 04:03:57 88° ESE 04:07:59 10° NNE
Cosmos 1633 2.7 04:03:18 28° SSW 04:04:59 58° W 04:08:35 10° N
ADEOS 4.2 04:01:55 10° N 04:06:46 40° WNW 04:09:49 20° SW
CENTAUR R/B 3.9 04:02:05 10° S 04:07:09 31° ESE 04:12:43 10° NE
ATLAS 3B R/B 4.1 04:02:55 12° W 04:08:34 29° NW 04:14:44 10° NNE
Cosmos 1048 Rocket 4.0 04:03:22 10° NNW 04:08:47 80° WSW 04:14:07 10° SSE
Okean 1 3.5 04:06:11 10° NNW 04:10:10 53° W 04:12:59 18° SSW
S3M 4.4 04:04:45 10° NNW 04:10:30 42° W 04:14:58 16° SSW
GRACE-1 3.7 04:09:58 32° SSW 04:11:00 62° W 04:13:40 10° N
GRACE-2 3.7 04:10:22 31° SSW 04:11:26 63° W 04:14:06 10° N
Gbstr 26 Del rocket 2.6 04:10:14 25° SW 04:12:19 76° SE 04:16:05 10° NE
Resurs 1-4 Rocket 3.4 04:14:40 10° NNW 04:19:00 26° WNW 04:22:14 15° WSW
Okean 1 Rocket 3.9 04:16:32 10° SSE 04:20:51 50° E 04:25:11 10° NNE
Cosmos 2344 3.8 04:15:51 17° SW 04:21:58 62° NW 04:30:21 10° NNE
Okean 2 Rocket 4.4 04:20:13 17° WSW 04:22:20 25° WNW 04:25:59 10° NNW
MOS 1 Rocket 4.1 04:17:38 10° N 04:22:43 44° WNW 04:26:38 15° SW
CZ-4B R/B 3.8 04:22:10 10° NNE 04:25:40 41° E 04:29:05 10° S
Meteor 2-4 Rocket 4.1 04:21:19 10° N 04:26:56 65° E 04:32:21 10° SSE
BREEZE M DEB (TANK) 3.7 04:21:33 14° SW 04:27:20 48° SE 04:30:08 10° ENE
Centaur D-1AR AC-40 4.2 04:15:38 10° WSW 04:28:10 25° SSW 04:32:34 10° SE
Cosmos 1441 Rocket 3.3 04:25:11 10° NNW 04:29:09 66° W 04:33:05 10° S
Meteor 1-13 Rocket 4.2 04:27:54 10° NNW 04:33:24 73° W 04:38:57 10° S
CZ-2D R/B 3.7 04:31:03 10° NNW 04:34:50 20° WNW 04:38:34 10° WSW
Meteor 1-11 Rocket 3.8 04:29:45 10° SSW 04:35:24 71° W 04:41:14 10° N
ARIANE 5 R/B 4.2 04:34:54 10° NNW 04:38:13 18° WNW 04:41:32 10° WSW
UNKNOWN OBJECT B 4.2 04:35:49 10° NNW 04:38:41 21° WNW 04:41:05 12° WSW
OE (NEXTSAT) 4.4 04:37:12 14° WSW 04:40:09 88° NW 04:43:44 10° ENE
Cosmos 1300 Rocket 3.6 04:36:25 10° SSW 04:40:48 63° W 04:45:13 10° N
PSLV R/B 3.3 04:45:45 10° WSW 04:49:02 73° NNW 04:52:21 10° ENE
Molniya-1 4.3 04:53:03 10° S 04:54:27 21° ESE 04:55:44 10° ENE
Okean O Rocket 1.6 04:50:04 10° NNE 04:54:28 88° WNW 04:58:53 10° SSW
USA 161 3.0 05:00:29 10° SW 05:01:48 14° W 05:03:10 10° WNW
Cosmos 1943 Rocket 2.9 04:56:37 10° SW 05:01:54 40° WNW 05:07:11 10° N
Cosmos 2369 Rocket 3.7 05:01:01 10° WSW 05:05:14 21° NW 05:09:29 10° N
Cosmos 1745 Rocket 4.2 05:01:03 10° S 05:07:23 84° E 05:13:44 10° N
